Weather History for TTPP - March, 2013

Change the Weather History Date:

Wednesday, March 13, 2013

  Actual Average Record
Temperature  
Mean Temperature 84 °F -  
Max Temperature 91 °F 87 °F 92 °F (2014)
Min Temperature 77 °F 72 °F 69 °F (1998)
Cooling Degree Days 19    
Growing Degree Days 34 (Base 50)    
Moisture  
Dew Point 72 °F    
Average Humidity 72    
Maximum Humidity 89    
Minimum Humidity 43    
Precipitation  
Precipitation 0.00 in 0.05 in - ()
Sea Level Pressure  
Sea Level Pressure 29.89 in    
Wind  
Wind Speed 10 mph ()    
Max Wind Speed 23 mph    
Max Gust Speed -    
Visibility 7.0 miles    
Events      
Averages and records for this station are not official NWS values.
T = Trace of Precipitation, MM = Missing Value Source: Averaged Metar Reports

Daily Weather History Graph

Daily Weather History Graph

Search for Another Location

Airport or City:

Trip Planner

Search our weather history database for the weather conditions in past years. The results will help you decide how hot, cold, wet, or windy it might be!

Date:

Astronomy

Mar. 13, 2013 Rise Set
Actual Time 6:13 AM AST 6:16 PM AST
Civil Twilight 5:52 AM AST 6:37 PM AST
Nautical Twilight 5:28 AM AST 7:01 PM AST
Astronomical Twilight 5:03 AM AST 7:26 PM AST
Moon 7:17 AM AST (3/13) 7:54 PM AST (3/13)
Length of Visible Light 12h 44m
Length of Day
12h 02m
Waxing Crescent, 4% of the Moon is Illuminated
Mar 13
Waxing Crescent
Mar 19
First Quarter
Mar 27
Full
Apr 3
Last Quarter
Apr 10
New

Hourly Weather History & Observations

Time (AST) Temp. Heat Index Dew Point Humidity Pressure Visibility Wind Dir Wind Speed Gust Speed Precip Events Conditions
12:00 AM 78.8 °F - 73.4 °F 83% 29.92 in 6.2 mi East 9.2 mph - N/A   Scattered Clouds
1:00 AM 77.0 °F - 73.4 °F 89% 29.89 in 6.2 mi East 8.1 mph - N/A   Scattered Clouds
2:00 AM 78 °F - 73 °F 80% 29.88 in 10 mi ESE 9.2 mph - -   Haze
2:00 AM 77.0 °F - 73.4 °F 89% 29.86 in 6.2 mi ESE 9.2 mph - N/A   Scattered Clouds
3:00 AM 77.0 °F - 73.4 °F 89% 29.86 in 6.2 mi ENE 9.2 mph - N/A   Scattered Clouds
4:00 AM 77.0 °F - 73.4 °F 89% 29.86 in 6.2 mi East 5.8 mph - N/A   Scattered Clouds
5:00 AM 77 °F - 73 °F 83% 29.88 in 11 mi East 6.9 mph - -   Haze
5:00 AM 77.0 °F - 73.4 °F 89% 29.86 in 6.2 mi East 6.9 mph - N/A   Scattered Clouds
6:00 AM 77.0 °F - 73.4 °F 89% 29.89 in 6.2 mi ESE 6.9 mph - N/A   Mostly Cloudy
7:00 AM 78.8 °F - 73.4 °F 83% 29.92 in 6.2 mi East 6.9 mph - N/A   Mostly Cloudy
8:00 AM 82 °F - 73 °F 69% 29.93 in 10 mi ESE 9.2 mph - -   Haze
8:00 AM 82.4 °F 88.2 °F 73.4 °F 74% 29.92 in 6.2 mi ESE 9.2 mph - N/A   Mostly Cloudy
9:00 AM 84.2 °F 90.9 °F 73.4 °F 70% 29.95 in 6.2 mi East 17.3 mph - N/A   Mostly Cloudy
10:00 AM 87.8 °F 93.8 °F 71.6 °F 58% 29.95 in 6.2 mi East 16.1 mph - N/A   Mostly Cloudy
11:00 AM 90 °F - 72 °F 46% 29.95 in 10 mi East 18.4 mph - -   Haze
11:00 AM 89.6 °F 96.2 °F 71.6 °F 55% 29.95 in 6.2 mi East 18.4 mph - N/A   Mostly Cloudy
12:00 PM 89.6 °F 94.7 °F 69.8 °F 52% 29.92 in 6.2 mi ESE 17.3 mph - N/A   Mostly Cloudy
1:00 PM 89.6 °F 94.7 °F 69.8 °F 52% 29.89 in 6.2 mi ESE 17.3 mph - N/A   Mostly Cloudy
2:00 PM 89 °F - 69 °F 43% 29.88 in 10 mi East 13.8 mph - -   Scattered Clouds
2:00 PM 87.8 °F 92.6 °F 69.8 °F 55% 29.86 in 6.2 mi East 13.8 mph - N/A   Mostly Cloudy
3:00 PM 87.8 °F 93.8 °F 71.6 °F 58% 29.86 in 6.2 mi East 23.0 mph - N/A   Mostly Cloudy
4:00 PM 87.8 °F 92.6 °F 69.8 °F 55% 29.86 in 6.2 mi ESE 20.7 mph - N/A   Mostly Cloudy
5:00 PM 86 °F - 70 °F 50% 29.87 in 8 mi East 13.8 mph - -   Scattered Clouds
5:00 PM 86.0 °F 90.4 °F 69.8 °F 58% 29.86 in 6.2 mi East 13.8 mph - N/A   Mostly Cloudy
6:00 PM 82.4 °F 88.2 °F 73.4 °F 74% 29.86 in 6.2 mi East 16.1 mph - N/A   Mostly Cloudy
7:00 PM 80.6 °F 86.2 °F 75.2 °F 84% 29.86 in 6.2 mi East 9.2 mph - N/A   Mostly Cloudy
8:00 PM 80 °F - 74 °F 76% 29.89 in 7 mi East 9.2 mph - -   Haze
8:00 PM 80.6 °F 85.4 °F 73.4 °F 79% 29.89 in 6.2 mi East 9.2 mph - N/A   Mostly Cloudy
9:00 PM 80.6 °F 85.4 °F 73.4 °F 79% 29.89 in 6.2 mi ENE 9.2 mph - N/A   Mostly Cloudy
10:00 PM 78.8 °F - 73.4 °F 83% 29.89 in 6.2 mi East 5.8 mph - N/A   Mostly Cloudy
11:00 PM 79 °F - 73 °F 77% 29.90 in 9 mi ESE 5.8 mph - -   Haze
11:00 PM 78.8 °F - 73.4 °F 83% 29.89 in 6.2 mi ESE 5.8 mph - N/A   Mostly Cloudy